Hourly Data Report for June 29, 2012

HALIFAX STANFIELD INT'L A
NOVA SCOTIA

44°52'48.060" N
63°30'00.050" W
145.40 m
8202250
71395
YHZ

Download Data

Hourly Data (June 2012)
Hourly Data Report for June 29, 2012
TIME
LST
Temp Definition
°C
Dew Point Definition
°C
Rel Hum Definition
%
Precip. Amount Definition
mm

Wind Dir Definition
10's deg

Wind Spd Definition
km/h
Visibility Definition
km
Stn Press Definition
kPa
Hmdx Definition


Wind Chill Definition


Weather Definition


00:00 14.2 14.1 99   20 9 24.1 98.79     Mostly Cloudy
01:00 14.2 13.5 96   21 13 24.1 98.79     Mainly Clear
02:00 14.1 13.4 96   22 17 24.1 98.78     Mainly Clear
03:00 14.1 13.5 96   22 17 24.1 98.76     Mostly Cloudy
04:00 14.1 13.6 97   22 17 24.1 98.76     Mostly Cloudy
05:00 14.0 13.6 97   21 15 24.1 98.77     Mainly Clear
06:00 15.0 14.3 96   22 17 24.1 98.83     Mainly Clear
07:00 16.4 14.8 90   21 15 24.1 98.86     Mainly Clear
08:00 18.3 15.1 82   23 19 24.1 98.88     Mainly Clear
09:00 20.6 15.6 73   23 17 24.1 98.82 25   Mostly Cloudy
10:00 22.1 16.2 69   22 15 24.1 98.84 27   Mostly Cloudy
11:00 23.3 16.5 66   22 22 24.1 98.81 28   Mostly Cloudy
12:00 23.5 16.1 63   23 32 24.1 98.82 28   Cloudy
13:00 22.8 16.5 68   21 26 24.1 98.81 28   Cloudy
14:00 22.7 16.3 67   20 30 24.1 98.84 28   Mostly Cloudy
15:00 23.1 15.0 60   22 24 24.1 98.77 27   Mostly Cloudy
16:00 23.1 15.1 61   21 33 24.1 98.76 27   Mostly Cloudy
17:00 21.9 16.0 69   20 17 24.1 98.68 27   Mostly Cloudy
18:00 21.5 15.7 70   20 26 24.1 98.67 26   Mostly Cloudy
19:00 19.4 16.7 84   20 24 24.1 98.68     Mostly Cloudy
20:00 17.2 16.1 93   19 22 16.1 98.70     Mostly Cloudy
21:00 17.0 16.5 97   19 24 6.4 98.70     Fog
22:00 17.4 16.6 95   20 22 4.8 98.74     Fog
23:00 16.9 16.1 95   19 22 6.4 98.70     Fog

Notes on Data Quality.

Legend

  • E = Estimated
  • M = Missing
  • NA = Not Available*
  • [empty] = Indicates an unobserved value
Date modified: